Notices

What's New in latest Release from April 7th, 2021:

- Updated Glossary, including Speed of Maximum Gust, and Total Hourly Precipitation

- Updated national and regional climate services offices contacts and prices information

- Addition of station inventory lists for 1981-2010, 1971-2000, and 1961-1990 Normals.

If you haven't already, please take our survey and provide feedback about our website: https://eccc.sondage-survey.ca/f/LanguageSelection.aspx?s=442ca660-fcf1-47c0-95a9-59707d6fd709

Hourly Data Report for October 31, 2019

PINAWA
MANITOBA
Current Station Operator: ECCC - MSC

50°10'38.020" N
96°03'53.000" W
268.00 m
503B1ER
71448
WEA

Download Data

Hourly Data (October 2019)
Hourly Data Report for October 31, 2019
TIME
LST
Temp Definition
°C
Dew Point Definition
°C
Rel Hum Definition
%
Precip. Amount Definition
mm

Wind Dir Definition
10's deg

Wind Spd Definition
km/h
Visibility Definition
km
Stn Press Definition
kPa
Hmdx Definition


Wind Chill Definition


Weather Definition


00:00 -4.4 LegendMM LegendMM 0.0 18 5   98.69   -7 LegendNANA
01:00 -5.1 LegendMM LegendMM 0.0 18 4   98.65   -7 LegendNANA
02:00 -5.7 LegendMM LegendMM 0.0 18 5   98.60   -8 LegendNANA
03:00 -6.2 LegendMM LegendMM 0.0 18 6   98.55   -9 LegendNANA
04:00 -6.7 LegendMM LegendMM 0.0 18 7   98.44   -10 LegendNANA
05:00 -7.1 LegendMM LegendMM 0.0 18 9   98.37   -11 LegendNANA
06:00 -6.9 LegendMM LegendMM 0.0 17 9   98.29   -11 LegendNANA
07:00 -6.8 LegendMM LegendMM 0.0 17 9   98.24   -11 LegendNANA
08:00 -6.7 LegendMM LegendMM 0.0 17 9   98.20   -11 LegendNANA
09:00 -5.0 LegendMM LegendMM 0.0 16 11   98.13   -10 LegendNANA
10:00 -3.1 LegendMM LegendMM 0.0 16 14   98.04   -8 LegendNANA
11:00 -0.1 LegendMM LegendMM 0.0 17 14   97.94   -4 LegendNANA
12:00 1.5 LegendMM LegendMM 0.0 18 12   97.84     LegendNANA
13:00 2.3 LegendMM LegendMM 0.0 18 12   97.76     LegendNANA
14:00 2.4 LegendMM LegendMM 0.0 18 10   97.68     LegendNANA
15:00 2.3 LegendMM LegendMM 0.0 18 10   97.66     LegendNANA
16:00 2.2 LegendMM LegendMM 0.0 20 8   97.67     LegendNANA
17:00 0.6 LegendMM LegendMM 0.0 23 11   97.72     LegendNANA
18:00 0.2 LegendMM LegendMM 0.0 17 5   97.70     LegendNANA
19:00 0.4 LegendMM LegendMM 0.0 24 3   97.68     LegendNANA
20:00 -0.6 LegendMM LegendMM 0.0 24 4   97.68   -2 LegendNANA
21:00 -0.6 LegendMM LegendMM 0.0 26 6   97.66   -3 LegendNANA
22:00 -0.6 LegendMM LegendMM 0.2 30 14   97.68   -5 LegendNANA
23:00 -0.8 LegendMM LegendMM 0.0 30 12   97.70   -5 LegendNANA

Notes on Data Quality.

Legend

  • E = Estimated
  • M = Missing
  • NA = Not Available*
  • [empty] = Indicates an unobserved value
Date modified: